Time,TemperatureF,DewpointF,PressureIn,WindDirection,WindDirectionDegrees,WindSpeedMPH,WindSpeedGustMPH,Humidity,HourlyPrecipIn,Conditions,Clouds,dailyrainin,SoftwareType,DateUTC
2013-03-20 00:03:00,12.8,3.3,30.03,WNW,288,11.0,13.0,65,0.00,,---,0.00,VWS V14.01,2013-03-20 05:03:00,
2013-03-20 00:08:00,12.6,3.1,30.03,WNW,286,8.0,17.0,65,0.00,,---,0.00,VWS V14.01,2013-03-20 05:08:00,
2013-03-20 00:13:00,12.4,2.9,30.03,WNW,283,13.0,16.0,65,0.00,,---,0.00,VWS V14.01,2013-03-20 05:13:00,
2013-03-20 00:18:00,12.2,2.4,30.04,WNW,286,9.0,21.0,64,0.00,,---,0.00,VWS V14.01,2013-03-20 05:18:00,
2013-03-20 00:23:00,11.8,2.3,30.04,West,270,7.0,15.0,65,0.00,,---,0.00,VWS V14.01,2013-03-20 05:23:00,
2013-03-20 00:28:00,11.7,2.2,30.04,WNW,294,13.0,19.0,65,0.00,,---,0.00,VWS V14.01,2013-03-20 05:28:00,
2013-03-20 00:33:00,11.3,1.8,30.04,West,280,10.0,15.0,65,0.00,,---,0.00,VWS V14.01,2013-03-20 05:33:00,
2013-03-20 00:38:00,11.1,1.6,30.03,WNW,293,7.0,19.0,65,0.00,,---,0.00,VWS V14.01,2013-03-20 05:38:00,
2013-03-20 00:43:00,11.0,1.5,30.03,West,279,11.0,16.0,65,0.00,,---,0.00,VWS V14.01,2013-03-20 05:43:00,
2013-03-20 00:53:00,10.5,1.4,30.03,West,267,14.0,16.0,66,0.00,,---,0.00,VWS V14.01,2013-03-20 05:53:00,
2013-03-20 00:58:00,10.4,1.3,30.03,WNW,293,5.0,16.0,66,0.00,,---,0.00,VWS V14.01,2013-03-20 05:58:00,
2013-03-20 01:08:00,10.0,0.9,30.03,West,259,14.0,17.0,66,0.00,,---,0.00,VWS V14.01,2013-03-20 06:08:00,
2013-03-20 01:13:00,9.9,0.8,30.03,WSW,254,14.0,16.0,66,0.00,,---,0.00,VWS V14.01,2013-03-20 06:13:00,
2013-03-20 01:18:00,9.9,0.8,30.03,WNW,288,9.0,18.0,66,0.00,,---,0.00,VWS V14.01,2013-03-20 06:18:00,
2013-03-20 01:23:00,9.7,1.0,30.03,WNW,286,12.0,17.0,67,0.00,,---,0.00,VWS V14.01,2013-03-20 06:23:00,
2013-03-20 01:28:00,9.6,0.9,30.03,West,265,12.0,20.0,67,0.00,,---,0.00,VWS V14.01,2013-03-20 06:28:00,
2013-03-20 01:38:00,9.4,0.7,30.04,West,277,11.0,19.0,67,0.00,,---,0.00,VWS V14.01,2013-03-20 06:38:00,
2013-03-20 01:43:00,9.2,0.5,30.04,West,276,12.0,19.0,67,0.00,,---,0.00,VWS V14.01,2013-03-20 06:43:00,
2013-03-20 01:53:00,9.1,0.4,30.04,West,271,8.0,14.0,67,0.00,,---,0.00,VWS V14.01,2013-03-20 06:53:00,
2013-03-20 01:58:00,9.1,0.4,30.04,West,267,14.0,16.0,67,0.00,,---,0.00,VWS V14.01,2013-03-20 06:58:00,
2013-03-20 02:03:00,9.0,0.6,30.04,West,273,12.0,17.0,68,0.00,,---,0.00,VWS V14.01,2013-03-20 07:03:00,
2013-03-20 02:13:00,8.8,0.4,30.04,NW,304,16.0,20.0,68,0.00,,---,0.00,VWS V14.01,2013-03-20 07:13:00,
2013-03-20 02:18:00,8.6,0.2,30.04,WNW,286,10.0,17.0,68,0.00,,---,0.00,VWS V14.01,2013-03-20 07:18:00,
2013-03-20 02:23:00,8.3,-0.1,30.04,WNW,303,10.0,12.0,68,0.00,,---,0.00,VWS V14.01,2013-03-20 07:23:00,
2013-03-20 02:28:00,8.2,0.2,30.04,WNW,298,13.0,17.0,69,0.00,,---,0.00,VWS V14.01,2013-03-20 07:28:00,
2013-03-20 02:38:00,8.1,0.1,30.04,West,267,13.0,15.0,69,0.00,,---,0.00,VWS V14.01,2013-03-20 07:38:00,
2013-03-20 02:48:00,7.9,0.2,30.04,West,271,14.0,19.0,70,0.00,,---,0.00,VWS V14.01,2013-03-20 07:48:00,
2013-03-20 02:53:00,7.8,0.1,30.04,WSW,258,17.0,17.0,70,0.00,,---,0.00,VWS V14.01,2013-03-20 07:53:00,
2013-03-20 02:58:00,7.5,-0.2,30.04,WNW,286,10.0,17.0,70,0.00,,---,0.00,VWS V14.01,2013-03-20 07:58:00,
2013-03-20 03:03:00,7.4,0.0,30.04,WNW,292,6.0,15.0,71,0.00,,---,0.00,VWS V14.01,2013-03-20 08:03:00,
2013-03-20 03:08:00,7.3,-0.1,30.04,WNW,290,10.0,17.0,71,0.00,,---,0.00,VWS V14.01,2013-03-20 08:08:00,
2013-03-20 03:13:00,7.3,-0.1,30.04,WNW,297,10.0,17.0,71,0.00,,---,0.00,VWS V14.01,2013-03-20 08:13:00,
2013-03-20 03:18:00,7.2,-0.2,30.04,West,272,6.0,20.0,71,0.00,,---,0.00,VWS V14.01,2013-03-20 08:18:00,
2013-03-20 03:23:00,7.1,0.0,30.04,WNW,291,9.0,16.0,72,0.00,,---,0.00,VWS V14.01,2013-03-20 08:23:00,
2013-03-20 03:28:00,6.9,-0.2,30.04,WNW,291,10.0,17.0,72,0.00,,---,0.00,VWS V14.01,2013-03-20 08:28:00,
2013-03-20 03:38:00,6.8,0.0,30.04,WSW,256,11.0,14.0,73,0.00,,---,0.00,VWS V14.01,2013-03-20 08:38:00,
2013-03-20 03:43:00,6.8,0.0,30.04,WNW,296,8.0,15.0,73,0.00,,---,0.00,VWS V14.01,2013-03-20 08:43:00,
2013-03-20 03:48:00,6.7,0.2,30.04,West,274,13.0,17.0,74,0.00,,---,0.00,VWS V14.01,2013-03-20 08:48:00,
2013-03-20 03:53:00,6.6,0.4,30.03,West,265,10.0,16.0,75,0.00,,---,0.00,VWS V14.01,2013-03-20 08:53:00,
2013-03-20 04:03:00,6.7,0.8,30.03,West,265,11.0,17.0,76,0.00,,---,0.00,VWS V14.01,2013-03-20 09:03:00,
2013-03-20 04:13:00,6.6,0.9,30.04,West,276,11.0,21.0,77,0.00,,---,0.00,VWS V14.01,2013-03-20 09:13:00,
2013-03-20 04:18:00,6.5,1.1,30.04,WNW,296,6.0,15.0,78,0.00,,---,0.00,VWS V14.01,2013-03-20 09:18:00,
2013-03-20 04:23:00,6.5,1.1,30.04,West,275,10.0,19.0,78,0.00,,---,0.00,VWS V14.01,2013-03-20 09:23:00,
2013-03-20 04:28:00,6.5,1.4,30.04,WNW,287,10.0,14.0,79,0.00,,---,0.00,VWS V14.01,2013-03-20 09:28:00,
2013-03-20 04:38:00,6.5,1.7,30.04,West,264,10.0,19.0,80,0.00,,---,0.00,VWS V14.01,2013-03-20 09:38:00,
2013-03-20 04:43:00,6.4,1.6,30.04,WSW,257,9.0,20.0,80,0.00,,---,0.00,VWS V14.01,2013-03-20 09:43:00,
2013-03-20 04:48:00,6.4,1.8,30.04,West,261,12.0,16.0,81,0.00,,---,0.00,VWS V14.01,2013-03-20 09:48:00,
2013-03-20 04:53:00,6.3,1.7,30.04,NW,313,14.0,17.0,81,0.00,,---,0.00,VWS V14.01,2013-03-20 09:53:00,
2013-03-20 04:58:00,6.3,2.0,30.04,West,271,8.0,18.0,82,0.00,,---,0.00,VWS V14.01,2013-03-20 09:58:00,
2013-03-20 05:03:00,6.4,2.1,30.04,West,265,8.0,15.0,82,0.00,,---,0.00,VWS V14.01,2013-03-20 10:03:00,
2013-03-20 05:08:00,6.4,2.1,30.04,WNW,299,11.0,15.0,82,0.00,,---,0.00,VWS V14.01,2013-03-20 10:08:00,
2013-03-20 05:13:00,6.4,2.1,30.04,West,280,9.0,18.0,82,0.00,,---,0.00,VWS V14.01,2013-03-20 10:13:00,
2013-03-20 05:18:00,6.4,2.3,30.04,WNW,290,11.0,17.0,83,0.00,,---,0.00,VWS V14.01,2013-03-20 10:18:00,
2013-03-20 05:23:00,6.3,2.2,30.04,WNW,286,13.0,16.0,83,0.00,,---,0.00,VWS V14.01,2013-03-20 10:23:00,
2013-03-20 05:28:00,6.3,2.2,30.05,WNW,296,10.0,15.0,83,0.00,,---,0.00,VWS V14.01,2013-03-20 10:28:00,
2013-03-20 05:33:00,6.2,2.2,30.05,West,279,7.0,18.0,83,0.00,,---,0.00,VWS V14.01,2013-03-20 10:33:00,
2013-03-20 05:43:00,6.0,2.0,30.04,West,268,12.0,15.0,83,0.00,,---,0.00,VWS V14.01,2013-03-20 10:43:00,
2013-03-20 05:48:00,6.0,1.7,30.04,WNW,291,12.0,20.0,82,0.00,,---,0.00,VWS V14.01,2013-03-20 10:48:00,
2013-03-20 05:53:00,5.9,1.6,30.04,West,270,13.0,18.0,82,0.00,,---,0.00,VWS V14.01,2013-03-20 10:53:00,
2013-03-20 05:58:00,5.8,1.5,30.04,WSW,250,7.0,17.0,82,0.00,,---,0.00,VWS V14.01,2013-03-20 10:58:00,
2013-03-20 06:03:00,5.7,1.4,30.04,WSW,248,10.0,15.0,82,0.00,,---,0.00,VWS V14.01,2013-03-20 11:03:00,
2013-03-20 06:08:00,5.7,3.9,30.04,WSW,256,11.0,16.0,92,0.00,,---,0.00,VWS V14.01,2013-03-20 11:08:00,
2013-03-20 06:13:00,5.7,3.9,30.05,West,261,13.0,16.0,92,0.00,,---,0.00,VWS V14.01,2013-03-20 11:13:00,
2013-03-20 06:18:00,5.7,1.4,30.05,West,273,6.0,15.0,82,0.00,,---,0.00,VWS V14.01,2013-03-20 11:18:00,
2013-03-20 06:28:00,5.4,1.1,30.05,WNW,295,7.0,13.0,82,0.00,,---,0.00,VWS V14.01,2013-03-20 11:28:00,
2013-03-20 06:33:00,5.4,1.1,30.05,WNW,292,7.0,16.0,82,0.00,,---,0.00,VWS V14.01,2013-03-20 11:33:00,
2013-03-20 06:38:00,5.4,1.1,30.05,West,261,10.0,11.0,82,0.00,,---,0.00,VWS V14.01,2013-03-20 11:38:00,
2013-03-20 06:43:00,5.3,1.3,30.05,WNW,284,5.0,12.0,83,0.00,,---,0.00,VWS V14.01,2013-03-20 11:43:00,
2013-03-20 06:48:00,5.2,1.2,30.05,WNW,284,5.0,11.0,83,0.00,,---,0.00,VWS V14.01,2013-03-20 11:48:00,
2013-03-20 06:53:00,5.1,1.1,30.05,WNW,284,7.0,14.0,83,0.00,,---,0.00,VWS V14.01,2013-03-20 11:53:00,
2013-03-20 06:58:00,5.2,1.2,30.05,WSW,247,13.0,13.0,83,0.00,,---,0.00,VWS V14.01,2013-03-20 11:58:00,
2013-03-20 07:03:00,5.3,1.0,30.05,West,271,6.0,16.0,82,0.00,,---,0.00,VWS V14.01,2013-03-20 12:03:00,
2013-03-20 07:13:00,5.1,0.8,30.05,West,263,7.0,13.0,82,0.00,,---,0.00,VWS V14.01,2013-03-20 12:13:00,
2013-03-20 07:18:00,5.1,1.1,30.05,WSW,249,10.0,16.0,83,0.00,,---,0.00,VWS V14.01,2013-03-20 12:18:00,
2013-03-20 07:23:00,5.1,1.1,30.05,WNW,286,8.0,14.0,83,0.00,,---,0.00,VWS V14.01,2013-03-20 12:23:00,
2013-03-20 07:28:00,5.1,1.1,30.05,West,268,6.0,13.0,83,0.00,,---,0.00,VWS V14.01,2013-03-20 12:28:00,
2013-03-20 07:38:00,5.1,1.1,30.05,West,262,11.0,16.0,83,0.00,,---,0.00,VWS V14.01,2013-03-20 12:38:00,
2013-03-20 07:43:00,5.1,1.1,30.05,NW,307,10.0,13.0,83,0.00,,---,0.00,VWS V14.01,2013-03-20 12:43:00,
2013-03-20 07:53:00,5.2,1.2,30.06,West,280,7.0,12.0,83,0.00,,---,0.00,VWS V14.01,2013-03-20 12:53:00,
2013-03-20 07:58:00,5.3,1.3,30.05,West,280,10.0,13.0,83,0.00,,---,0.00,VWS V14.01,2013-03-20 12:58:00,
2013-03-20 08:08:00,5.7,1.4,30.05,West,273,9.0,13.0,82,0.00,,---,0.00,VWS V14.01,2013-03-20 13:08:00,
2013-03-20 08:13:00,5.8,1.5,30.05,West,266,7.0,13.0,82,0.00,,---,0.00,VWS V14.01,2013-03-20 13:13:00,
2013-03-20 08:18:00,5.9,1.6,30.06,WNW,287,11.0,12.0,82,0.00,,---,0.00,VWS V14.01,2013-03-20 13:18:00,
2013-03-20 08:23:00,6.0,1.7,30.06,West,266,6.0,13.0,82,0.00,,---,0.00,VWS V14.01,2013-03-20 13:23:00,
2013-03-20 08:28:00,6.1,1.8,30.06,WNW,286,7.0,13.0,82,0.00,,---,0.00,VWS V14.01,2013-03-20 13:28:00,
2013-03-20 08:38:00,6.4,2.1,30.06,WSW,257,10.0,15.0,82,0.00,,---,0.00,VWS V14.01,2013-03-20 13:38:00,
2013-03-20 08:48:00,6.8,2.5,30.06,WNW,282,6.0,16.0,82,0.00,,---,0.00,VWS V14.01,2013-03-20 13:48:00,
2013-03-20 08:53:00,7.0,2.7,30.06,WNW,296,11.0,16.0,82,0.00,,---,0.00,VWS V14.01,2013-03-20 13:53:00,
2013-03-20 09:03:00,7.6,3.0,30.06,West,271,9.0,15.0,81,0.00,,---,0.00,VWS V14.01,2013-03-20 14:03:00,
2013-03-20 09:08:00,7.7,3.1,30.06,West,273,13.0,14.0,81,0.00,,---,0.00,VWS V14.01,2013-03-20 14:08:00,
2013-03-20 09:13:00,7.8,3.2,30.06,WNW,301,10.0,15.0,81,0.00,,---,0.00,VWS V14.01,2013-03-20 14:13:00,
2013-03-20 09:18:00,8.2,3.6,30.06,WNW,284,8.0,12.0,81,0.00,,---,0.00,VWS V14.01,2013-03-20 14:18:00,
2013-03-20 09:28:00,8.2,3.3,30.06,WNW,288,12.0,20.0,80,0.00,,---,0.00,VWS V14.01,2013-03-20 14:28:00,
2013-03-20 09:33:00,8.3,3.4,30.06,WNW,299,5.0,16.0,80,0.00,,---,0.00,VWS V14.01,2013-03-20 14:33:00,
2013-03-20 09:38:00,8.5,3.6,30.06,WNW,290,11.0,15.0,80,0.00,,---,0.00,VWS V14.01,2013-03-20 14:38:00,
2013-03-20 09:48:00,8.6,3.7,30.06,WNW,290,2.0,17.0,80,0.00,,---,0.00,VWS V14.01,2013-03-20 14:48:00,
2013-03-20 09:58:00,8.9,4.0,30.06,NNW,336,4.0,20.0,80,0.00,,---,0.00,VWS V14.01,2013-03-20 14:58:00,
2013-03-20 10:03:00,9.0,4.1,30.06,WNW,288,10.0,14.0,80,0.00,,---,0.00,VWS V14.01,2013-03-20 15:03:00,
2013-03-20 10:08:00,8.8,4.2,30.06,West,267,8.0,14.0,81,0.00,,---,0.00,VWS V14.01,2013-03-20 15:08:00,
2013-03-20 10:13:00,8.9,4.3,30.06,WSW,254,7.0,14.0,81,0.00,,---,0.00,VWS V14.01,2013-03-20 15:13:00,
2013-03-20 10:18:00,9.0,4.4,30.07,WNW,301,4.0,17.0,81,0.00,,---,0.00,VWS V14.01,2013-03-20 15:18:00,
2013-03-20 10:23:00,9.4,4.8,30.06,West,267,11.0,15.0,81,0.00,,---,0.00,VWS V14.01,2013-03-20 15:23:00,
2013-03-20 10:28:00,9.8,5.2,30.06,West,275,11.0,15.0,81,0.00,,---,0.00,VWS V14.01,2013-03-20 15:28:00,
2013-03-20 10:33:00,9.8,4.9,30.06,WNW,286,5.0,16.0,80,0.00,,---,0.00,VWS V14.01,2013-03-20 15:33:00,
2013-03-20 10:38:00,9.9,4.7,30.07,WNW,300,7.0,16.0,79,0.00,,---,0.00,VWS V14.01,2013-03-20 15:38:00,
2013-03-20 10:48:00,9.9,4.4,30.07,WNW,283,6.0,14.0,78,0.00,,---,0.00,VWS V14.01,2013-03-20 15:48:00,
2013-03-20 10:58:00,10.4,4.6,30.07,WNW,293,1.0,11.0,77,0.00,,---,0.00,VWS V14.01,2013-03-20 15:58:00,
2013-03-20 11:08:00,10.2,4.4,30.07,West,280,7.0,17.0,77,0.00,,---,0.00,VWS V14.01,2013-03-20 16:08:00,
2013-03-20 11:13:00,10.1,4.1,30.07,WNW,284,12.0,19.0,76,0.00,,---,0.00,VWS V14.01,2013-03-20 16:13:00,
2013-03-20 11:18:00,10.1,4.1,30.07,West,264,12.0,15.0,76,0.00,,---,0.00,VWS V14.01,2013-03-20 16:18:00,
2013-03-20 11:28:00,10.3,3.7,30.08,NW,317,2.0,17.0,74,0.00,,---,0.00,VWS V14.01,2013-03-20 16:28:00,
2013-03-20 11:33:00,10.7,4.1,30.08,WNW,287,7.0,12.0,74,0.00,,---,0.00,VWS V14.01,2013-03-20 16:33:00,
2013-03-20 11:38:00,11.3,4.3,30.08,NW,319,3.0,14.0,73,0.00,,---,0.00,VWS V14.01,2013-03-20 16:38:00,
2013-03-20 11:43:00,11.4,4.4,30.08,WNW,285,12.0,14.0,73,0.00,,---,0.00,VWS V14.01,2013-03-20 16:43:00,
2013-03-20 11:48:00,11.2,3.7,30.08,NW,310,3.0,17.0,71,0.00,,---,0.00,VWS V14.01,2013-03-20 16:48:00,
2013-03-20 11:58:00,12.6,5.3,30.08,North,9,0.0,10.0,72,0.00,,---,0.00,VWS V14.01,2013-03-20 16:58:00,
2013-03-20 12:08:00,12.3,4.4,30.08,WNW,302,7.0,10.0,70,0.00,,---,0.00,VWS V14.01,2013-03-20 17:08:00,
2013-03-20 12:13:00,12.3,4.7,30.08,West,278,4.0,11.0,71,0.00,,---,0.00,VWS V14.01,2013-03-20 17:13:00,
2013-03-20 12:18:00,12.3,4.4,30.08,WNW,290,8.0,12.0,70,0.00,,---,0.00,VWS V14.01,2013-03-20 17:18:00,
2013-03-20 12:23:00,12.3,4.4,30.08,West,264,10.0,16.0,70,0.00,,---,0.00,VWS V14.01,2013-03-20 17:23:00,
2013-03-20 12:28:00,12.1,4.5,30.09,WNW,284,4.0,14.0,71,0.00,,---,0.00,VWS V14.01,2013-03-20 17:28:00,
2013-03-20 12:33:00,12.1,4.5,30.09,West,271,5.0,12.0,71,0.00,,---,0.00,VWS V14.01,2013-03-20 17:33:00,
2013-03-20 12:43:00,13.4,5.8,30.08,WNW,291,12.0,14.0,71,0.00,,---,0.00,VWS V14.01,2013-03-20 17:43:00,
2013-03-20 12:48:00,12.8,5.2,30.08,WNW,289,5.0,15.0,71,0.00,,---,0.00,VWS V14.01,2013-03-20 17:48:00,
2013-03-20 12:53:00,12.7,5.1,30.08,NW,307,7.0,13.0,71,0.00,,---,0.00,VWS V14.01,2013-03-20 17:53:00,
2013-03-20 12:58:00,12.8,5.2,30.08,West,265,13.0,16.0,71,0.00,,---,0.00,VWS V14.01,2013-03-20 17:58:00,
2013-03-20 13:03:00,12.9,5.3,30.08,WSW,250,6.0,18.0,71,0.00,,---,0.00,VWS V14.01,2013-03-20 18:03:00,
2013-03-20 13:13:00,12.8,4.9,30.08,West,276,11.0,16.0,70,0.00,,---,0.00,VWS V14.01,2013-03-20 18:13:00,
2013-03-20 13:23:00,13.4,5.8,30.08,NNW,330,0.0,10.0,71,0.00,,---,0.00,VWS V14.01,2013-03-20 18:23:00,
2013-03-20 13:28:00,14.1,6.4,30.08,NW,323,1.0,14.0,71,0.00,,---,0.00,VWS V14.01,2013-03-20 18:28:00,
2013-03-20 13:33:00,13.8,5.5,30.08,WNW,291,10.0,14.0,69,0.00,,---,0.00,VWS V14.01,2013-03-20 18:33:00,
2013-03-20 13:38:00,13.7,5.8,30.08,WNW,300,6.0,15.0,70,0.00,,---,0.00,VWS V14.01,2013-03-20 18:38:00,
2013-03-20 13:43:00,13.7,5.1,30.08,NW,304,12.0,15.0,68,0.00,,---,0.00,VWS V14.01,2013-03-20 18:43:00,
2013-03-20 13:48:00,13.7,5.4,30.08,NW,306,5.0,14.0,69,0.00,,---,0.00,VWS V14.01,2013-03-20 18:48:00,
2013-03-20 13:58:00,14.0,5.4,30.08,West,278,7.0,12.0,68,0.00,,---,0.00,VWS V14.01,2013-03-20 18:58:00,
2013-03-20 14:03:00,14.2,5.3,30.08,WNW,290,10.0,17.0,67,0.00,,---,0.00,VWS V14.01,2013-03-20 19:03:00,
2013-03-20 14:08:00,14.4,5.8,30.08,WNW,299,3.0,14.0,68,0.00,,---,0.00,VWS V14.01,2013-03-20 19:08:00,
2013-03-20 14:13:00,14.4,5.5,30.08,WNW,292,7.0,14.0,67,0.00,,---,0.00,VWS V14.01,2013-03-20 19:13:00,
2013-03-20 14:18:00,14.3,5.7,30.08,WNW,294,12.0,14.0,68,0.00,,---,0.00,VWS V14.01,2013-03-20 19:18:00,
2013-03-20 14:23:00,14.8,6.2,30.08,North,360,2.0,13.0,68,0.00,,---,0.00,VWS V14.01,2013-03-20 19:23:00,
2013-03-20 14:28:00,14.8,5.8,30.08,WNW,284,6.0,11.0,67,0.00,,---,0.00,VWS V14.01,2013-03-20 19:28:00,
2013-03-20 14:33:00,14.8,5.5,30.08,NNW,327,2.0,13.0,66,0.00,,---,0.00,VWS V14.01,2013-03-20 19:33:00,
2013-03-20 14:38:00,14.6,5.3,30.08,WNW,288,12.0,12.0,66,0.00,,---,0.00,VWS V14.01,2013-03-20 19:38:00,
2013-03-20 14:48:00,15.4,6.4,30.08,West,279,5.0,9.0,67,0.00,,---,0.00,VWS V14.01,2013-03-20 19:48:00,
2013-03-20 14:53:00,15.2,6.2,30.08,WNW,299,0.0,13.0,67,0.00,,---,0.00,VWS V14.01,2013-03-20 19:53:00,
2013-03-20 14:58:00,15.4,6.7,30.08,WNW,288,0.0,9.0,68,0.00,,---,0.00,VWS V14.01,2013-03-20 19:58:00,
2013-03-20 15:03:00,15.6,6.6,30.08,WSW,256,9.0,11.0,67,0.00,,---,0.00,VWS V14.01,2013-03-20 20:03:00,
2013-03-20 15:08:00,15.2,6.6,30.08,West,279,5.0,10.0,68,0.00,,---,0.00,VWS V14.01,2013-03-20 20:08:00,
2013-03-20 15:13:00,15.3,6.7,30.08,SW,226,4.0,10.0,68,0.00,,---,0.00,VWS V14.01,2013-03-20 20:13:00,
2013-03-20 15:18:00,15.5,6.5,30.09,West,280,5.0,11.0,67,0.00,,---,0.00,VWS V14.01,2013-03-20 20:18:00,
2013-03-20 15:23:00,15.3,6.3,30.08,NNW,342,2.0,12.0,67,0.00,,---,0.00,VWS V14.01,2013-03-20 20:23:00,
2013-03-20 15:28:00,15.3,6.3,30.08,WNW,291,5.0,10.0,67,0.00,,---,0.00,VWS V14.01,2013-03-20 20:28:00,
2013-03-20 15:33:00,15.6,7.3,30.08,NNW,328,4.0,7.0,69,0.00,,---,0.00,VWS V14.01,2013-03-20 20:33:00,
2013-03-20 15:38:00,16.2,7.8,30.08,WNW,287,10.0,12.0,69,0.00,,---,0.00,VWS V14.01,2013-03-20 20:38:00,
2013-03-20 15:43:00,16.1,6.8,30.08,WNW,286,10.0,12.0,66,0.00,,---,0.00,VWS V14.01,2013-03-20 20:43:00,
2013-03-20 15:48:00,16.1,6.4,30.08,West,263,15.0,15.0,65,0.00,,---,0.00,VWS V14.01,2013-03-20 20:48:00,
2013-03-20 15:53:00,16.3,6.6,30.08,NW,323,3.0,16.0,65,0.00,,---,0.00,VWS V14.01,2013-03-20 20:53:00,
2013-03-20 15:58:00,16.5,7.1,30.08,NNW,346,1.0,11.0,66,0.00,,---,0.00,VWS V14.01,2013-03-20 20:58:00,
2013-03-20 16:03:00,16.9,7.2,30.08,West,281,3.0,5.0,65,0.00,,---,0.00,VWS V14.01,2013-03-20 21:03:00,
2013-03-20 16:08:00,16.7,6.7,30.08,WNW,284,9.0,11.0,64,0.00,,---,0.00,VWS V14.01,2013-03-20 21:08:00,
2013-03-20 16:13:00,16.4,6.4,30.08,West,272,11.0,13.0,64,0.00,,---,0.00,VWS V14.01,2013-03-20 21:13:00,
2013-03-20 16:18:00,16.7,7.0,30.08,WNW,290,6.0,16.0,65,0.00,,---,0.00,VWS V14.01,2013-03-20 21:18:00,
2013-03-20 16:23:00,16.6,7.2,30.08,WNW,290,5.0,12.0,66,0.00,,---,0.00,VWS V14.01,2013-03-20 21:23:00,
2013-03-20 16:28:00,16.6,7.2,30.08,North,9,0.0,13.0,66,0.00,,---,0.00,VWS V14.01,2013-03-20 21:28:00,
2013-03-20 16:33:00,16.7,7.7,30.09,North,355,0.0,14.0,67,0.00,,---,0.00,VWS V14.01,2013-03-20 21:33:00,
2013-03-20 16:38:00,16.8,7.4,30.09,WNW,288,8.0,10.0,66,0.00,,---,0.00,VWS V14.01,2013-03-20 21:38:00,
2013-03-20 16:48:00,16.6,7.6,30.09,WNW,294,10.0,10.0,67,0.00,,---,0.00,VWS V14.01,2013-03-20 21:48:00,
2013-03-20 16:53:00,16.9,7.5,30.09,West,273,1.0,10.0,66,0.00,,---,0.00,VWS V14.01,2013-03-20 21:53:00,
2013-03-20 16:58:00,17.0,7.6,30.10,WNW,288,10.0,11.0,66,0.00,,---,0.00,VWS V14.01,2013-03-20 21:58:00,
2013-03-20 17:03:00,16.8,7.8,30.10,WNW,292,5.0,12.0,67,0.00,,---,0.00,VWS V14.01,2013-03-20 22:03:00,
2013-03-20 17:08:00,16.7,8.0,30.10,NW,326,1.0,7.0,68,0.00,,---,0.00,VWS V14.01,2013-03-20 22:08:00,
2013-03-20 17:13:00,16.8,8.1,30.10,WNW,293,10.0,11.0,68,0.00,,---,0.00,VWS V14.01,2013-03-20 22:13:00,
2013-03-20 17:23:00,16.4,8.3,30.10,WNW,300,3.0,12.0,70,0.00,,---,0.00,VWS V14.01,2013-03-20 22:23:00,
2013-03-20 17:28:00,16.3,8.2,30.10,WNW,301,3.0,10.0,70,0.00,,---,0.00,VWS V14.01,2013-03-20 22:28:00,
2013-03-20 17:33:00,16.4,8.7,30.10,WNW,292,0.0,7.0,71,0.00,,---,0.00,VWS V14.01,2013-03-20 22:33:00,
2013-03-20 17:38:00,16.7,8.9,30.10,WNW,290,5.0,6.0,71,0.00,,---,0.00,VWS V14.01,2013-03-20 22:38:00,
2013-03-20 17:43:00,16.6,8.2,30.10,WNW,298,6.0,10.0,69,0.00,,---,0.00,VWS V14.01,2013-03-20 22:43:00,
2013-03-20 17:48:00,16.7,8.0,30.10,WNW,301,0.0,11.0,68,0.00,,---,0.00,VWS V14.01,2013-03-20 22:48:00,
2013-03-20 17:53:00,16.9,7.8,30.11,WNW,296,0.0,6.0,67,0.00,,---,0.00,VWS V14.01,2013-03-20 22:53:00,
2013-03-20 18:03:00,17.1,8.1,30.11,West,280,3.0,5.0,67,0.00,,---,0.00,VWS V14.01,2013-03-20 23:03:00,
2013-03-20 18:08:00,16.9,7.8,30.11,WNW,296,5.0,9.0,67,0.00,,---,0.00,VWS V14.01,2013-03-20 23:08:00,
2013-03-20 18:13:00,16.8,8.1,30.11,West,275,0.0,6.0,68,0.00,,---,0.00,VWS V14.01,2013-03-20 23:13:00,
2013-03-20 18:18:00,16.8,8.1,30.11,NNW,336,0.0,2.0,68,0.00,,---,0.00,VWS V14.01,2013-03-20 23:18:00,
2013-03-20 18:23:00,16.8,8.1,30.11,WNW,302,4.0,6.0,68,0.00,,---,0.00,VWS V14.01,2013-03-20 23:23:00,
2013-03-20 18:28:00,16.7,8.0,30.12,West,281,5.0,6.0,68,0.00,,---,0.00,VWS V14.01,2013-03-20 23:28:00,
2013-03-20 18:33:00,16.7,8.0,30.12,WNW,295,1.0,6.0,68,0.00,,---,0.00,VWS V14.01,2013-03-20 23:33:00,
2013-03-20 18:38:00,16.6,7.6,30.12,WNW,302,2.0,8.0,67,0.00,,---,0.00,VWS V14.01,2013-03-20 23:38:00,
2013-03-20 18:48:00,16.6,7.6,30.12,North,5,4.0,5.0,67,0.00,,---,0.00,VWS V14.01,2013-03-20 23:48:00,
2013-03-20 18:53:00,16.5,7.8,30.12,NNW,327,0.0,5.0,68,0.00,,---,0.00,VWS V14.01,2013-03-20 23:53:00,
2013-03-20 18:58:00,16.5,7.8,30.12,NNW,327,0.0,1.0,68,0.00,,---,0.00,VWS V14.01,2013-03-20 23:58:00,
2013-03-20 19:03:00,16.5,7.8,30.12,NNW,327,2.0,2.0,68,0.00,,---,0.00,VWS V14.01,2013-03-21 00:03:00,
2013-03-20 19:08:00,16.4,7.7,30.12,WNW,298,4.0,5.0,68,0.00,,---,0.00,VWS V14.01,2013-03-21 00:08:00,
2013-03-20 19:13:00,16.3,7.6,30.12,WNW,291,5.0,10.0,68,0.00,,---,0.00,VWS V14.01,2013-03-21 00:13:00,
2013-03-20 19:18:00,16.3,7.6,30.12,WNW,283,3.0,5.0,68,0.00,,---,0.00,VWS V14.01,2013-03-21 00:18:00,
2013-03-20 19:23:00,16.2,7.8,30.12,NW,304,1.0,5.0,69,0.00,,---,0.00,VWS V14.01,2013-03-21 00:23:00,
2013-03-20 19:28:00,16.1,7.7,30.12,WNW,301,0.0,6.0,69,0.00,,---,0.00,VWS V14.01,2013-03-21 00:28:00,
2013-03-20 19:38:00,15.9,7.9,30.12,WNW,288,1.0,4.0,70,0.00,,---,0.00,VWS V14.01,2013-03-21 00:38:00,
2013-03-20 19:43:00,15.8,7.8,30.12,WNW,288,0.0,5.0,70,0.00,,---,0.00,VWS V14.01,2013-03-21 00:43:00,
2013-03-20 19:53:00,15.7,7.7,30.11,WNW,288,0.0,3.0,70,0.00,,---,0.00,VWS V14.01,2013-03-21 00:53:00,
2013-03-20 20:03:00,15.5,7.5,30.12,WNW,288,0.0,1.0,70,0.00,,---,0.00,VWS V14.01,2013-03-21 01:03:00,
2013-03-20 20:08:00,15.5,7.2,30.11,WNW,288,3.0,4.0,69,0.00,,---,0.00,VWS V14.01,2013-03-21 01:08:00,
2013-03-20 20:18:00,15.5,7.2,30.12,WNW,288,2.0,3.0,69,0.00,,---,0.00,VWS V14.01,2013-03-21 01:18:00,
2013-03-20 20:23:00,15.4,6.7,30.12,WNW,288,0.0,2.0,68,0.00,,---,0.00,VWS V14.01,2013-03-21 01:23:00,
2013-03-20 20:33:00,15.4,6.7,30.12,WNW,295,0.0,4.0,68,0.00,,---,0.00,VWS V14.01,2013-03-21 01:33:00,
2013-03-20 20:43:00,15.4,7.1,30.12,WNW,295,0.0,2.0,69,0.00,,---,0.00,VWS V14.01,2013-03-21 01:43:00,
2013-03-20 20:53:00,15.5,7.2,30.12,WNW,290,0.0,3.0,69,0.00,,---,0.00,VWS V14.01,2013-03-21 01:53:00,
2013-03-20 20:58:00,15.5,7.2,30.12,WNW,294,1.0,5.0,69,0.00,,---,0.00,VWS V14.01,2013-03-21 01:58:00,
2013-03-20 21:03:00,15.5,7.2,30.12,WNW,287,0.0,5.0,69,0.00,,---,0.00,VWS V14.01,2013-03-21 02:03:00,
2013-03-20 21:08:00,15.5,7.2,30.12,WNW,288,0.0,4.0,69,0.00,,---,0.00,VWS V14.01,2013-03-21 02:08:00,
2013-03-20 21:18:00,15.4,7.4,30.13,WNW,288,0.0,2.0,70,0.00,,---,0.00,VWS V14.01,2013-03-21 02:18:00,
2013-03-20 21:23:00,15.4,7.4,30.12,NW,320,0.0,3.0,70,0.00,,---,0.00,VWS V14.01,2013-03-21 02:23:00,
2013-03-20 21:28:00,15.4,7.7,30.12,NW,320,0.0,0.0,71,0.00,,---,0.00,VWS V14.01,2013-03-21 02:28:00,
2013-03-20 21:33:00,15.3,7.6,30.13,NW,320,0.0,0.0,71,0.00,,---,0.00,VWS V14.01,2013-03-21 02:33:00,
2013-03-20 21:43:00,15.3,7.9,30.13,North,355,0.0,4.0,72,0.00,,---,0.00,VWS V14.01,2013-03-21 02:43:00,
2013-03-20 21:53:00,15.3,7.9,30.13,North,355,0.0,2.0,72,0.00,,---,0.00,VWS V14.01,2013-03-21 02:53:00,
2013-03-20 21:58:00,15.2,7.8,30.13,North,355,1.0,4.0,72,0.00,,---,0.00,VWS V14.01,2013-03-21 02:58:00,
2013-03-20 22:03:00,15.3,7.9,30.13,North,355,0.0,2.0,72,0.00,,---,0.00,VWS V14.01,2013-03-21 03:03:00,
2013-03-20 22:08:00,15.3,7.9,30.13,North,355,0.0,3.0,72,0.00,,---,0.00,VWS V14.01,2013-03-21 03:08:00,
2013-03-20 22:18:00,15.3,7.6,30.13,North,355,0.0,3.0,71,0.00,,---,0.00,VWS V14.01,2013-03-21 03:18:00,
2013-03-20 22:23:00,15.3,7.6,30.14,North,355,0.0,0.0,71,0.00,,---,0.00,VWS V14.01,2013-03-21 03:23:00,
2013-03-20 22:28:00,15.2,7.5,30.13,West,271,0.0,2.0,71,0.00,,---,0.00,VWS V14.01,2013-03-21 03:28:00,
2013-03-20 22:38:00,15.2,7.5,30.13,WNW,291,0.0,4.0,71,0.00,,---,0.00,VWS V14.01,2013-03-21 03:38:00,
2013-03-20 22:43:00,15.2,7.5,30.13,WNW,292,0.0,3.0,71,0.00,,---,0.00,VWS V14.01,2013-03-21 03:43:00,
2013-03-20 22:53:00,15.1,7.4,30.13,WNW,292,0.0,2.0,71,0.00,,---,0.00,VWS V14.01,2013-03-21 03:53:00,
2013-03-20 22:58:00,15.1,7.4,30.13,West,275,0.0,1.0,71,0.00,,---,0.00,VWS V14.01,2013-03-21 03:58:00,
2013-03-20 23:03:00,14.9,7.2,30.13,NNW,336,0.0,3.0,71,0.00,,---,0.00,VWS V14.01,2013-03-21 04:03:00,
2013-03-20 23:08:00,14.8,7.1,30.13,NNW,336,0.0,3.0,71,0.00,,---,0.00,VWS V14.01,2013-03-21 04:08:00,
2013-03-20 23:18:00,14.4,6.7,30.12,NNW,336,0.0,3.0,71,0.00,,---,0.00,VWS V14.01,2013-03-21 04:18:00,
2013-03-20 23:23:00,14.3,6.6,30.12,NNW,336,1.0,2.0,71,0.00,,---,0.00,VWS V14.01,2013-03-21 04:23:00,
2013-03-20 23:28:00,14.1,6.8,30.12,NNW,336,0.0,2.0,72,0.00,,---,0.00,VWS V14.01,2013-03-21 04:28:00,
2013-03-20 23:33:00,13.9,6.6,30.12,NNW,336,0.0,2.0,72,0.00,,---,0.00,VWS V14.01,2013-03-21 04:33:00,
2013-03-20 23:43:00,13.7,6.7,30.13,NNW,336,2.0,2.0,73,0.00,,---,0.00,VWS V14.01,2013-03-21 04:43:00,
2013-03-20 23:53:00,13.7,7.0,30.12,NNW,336,0.0,0.0,74,0.00,,---,0.00,VWS V14.01,2013-03-21 04:53:00,
2013-03-20 23:58:00,13.8,7.1,30.12,NNW,336,0.0,0.0,74,0.00,,---,0.00,VWS V14.01,2013-03-21 04:58:00,